User: anonymous   Login
Location: Unspecified
(0.0000°N, 0.0000°E)
Time: 02:49:50
(UTC+00:00)
Language:

UNK - Orbit

View from above orbital plane
View from above orbital plane
View from above satellite
View from above satellite

Ground track
Ground track

The orbit data is extracted from the following two-line orbital elements,

1 27945U 03042G   17147.37370613 +.00000030 +00000-0 +14318-4 0  9990
2 27945 097.9402 289.8838 0011163 318.0961 041.9388 14.64732959729557
Epoch (UTC): 27 May 2017 08:58:08
Eccentricity: 0.0011163
inclination: 97.9402°
perigee height: 670 km
apogee height: 686 km
right ascension of ascending node: 289.8838°
argument of perigee: 318.0961°
revolutions per day: 14.64732959
mean anomaly at epoch: 41.9388°
orbit number at epoch: 72955

The dashed part of the orbit path shows where the satellite is in the earth's shadow,  

DLR